軌道要素
Epoch 2010 Dec. 30.0 TT = JDT 2455560.5
T 2010 Dec. 22.50386 TT MPC
q 1.5587814 (2000.0) P Q
n 0.17980318 Peri. 94.58852 -0.85750916 -0.51051185
a 3.1088837 Node 54.72681 +0.43566433 -0.78641290
e 0.4986041 Incl. 4.47393 +0.27363229 -0.34775335
P 5.48
From 221 observations 2011 Jan. 11-May 12, mean residual 0".6.
|